Location: Winthrop
(48.4780°N, 120.1850°W)
Time: 17:51:31
(UTC-07:00)

Explorer 7 - Pass Details

Date: 05 February 2023
Orbit: 478 x 657 km, 50.3° (Epoch: 30 March)

Event Time Altitude Azimuth Distance (km) Brightness Sun altitude
Rises 12:56:03 0° 261° (W) 2,689 10.6 25.1°
Reaches altitude 10° 12:58:13 10° 263° (W) 1,828 9.8 25.0°
Maximum altitude 13:02:24 76° 350° (N) 599 7.2 24.9°
Drops below altitude 10° 13:06:52 10° 76° (ENE) 1,950 9.4 24.7°
Sets 13:09:14 0° 78° (ENE) 2,885 10.2 24.6°
